Home   Weather   Garbsen   Past weeks

Flag for Germany Past Weather in Garbsen, Lower Saxony, Germany — Yesterday and Last 2 Weeks

Now
34 °F

Passing clouds.


Feels Like: 34 °F
Forecast: 29 / 52 °F
Wind: 2 mph from North

Location: Hannover

Current Time: Apr 27, 2017 at 1:46:43 am

Latest Report: Apr 27, 2017 at 1:20 am


Visibility: N/A

Pressure: 29.95 "Hg

Humidity: 93%

Dew Point: 32 °F

Location of GarbsenLocation

Past Weather in Garbsen — Graph

°F

Garbsen Temperature Yesterday

Maximum temperature yesterday: 52 °F (at 2:20 pm)
Minimum temperature yesterday: 32 °F (at 5:20 am)
Average temperature yesterday: 42 °F

High & Low Weather Summary for the Past Weeks

 TemperatureHumidityPressure
High55 °F (Apr 21, 1:20 pm)100% (Apr 17, 3:50 am)30.63 "Hg (Apr 17, 3:50 am)
Low25 °F (Apr 20, 4:50 am)37% (Apr 20, 4:50 pm)29.62 "Hg (Apr 25, 3:20 am)
Average44 °F73%30.07 "Hg
* Reported Apr 12 12:20 am — Apr 27 12:50 am, Garbsen, Weather by CustomWeather, © 2017

Note: Actual official high and low records may vary slightly from our data, if they occured in-between our weather recording intervals... More about our weather records

Advertising

Garbsen Weather History for the Previous 24 Hours

Scroll right to see more
 ConditionsComfort  
Time TempWeatherWind HumidityBarometerVisibility
12:50 am
Thu, Apr 27
34 °FPassing clouds.2 mph87%29.95 "HgN/A
11:50 pm
Wed, Apr 26
36 °FClear.3 mph87%29.95 "Hg10 mi
11:20 pm36 °FClear.3 mph81%29.95 "Hg10 mi
10:50 pm37 °FClear.1 mph81%29.92 "Hg10 mi
10:20 pm39 °FClear.5 mph75%29.92 "Hg10 mi
9:50 pm39 °FClear.7 mph70%29.92 "Hg10 mi
9:20 pm41 °FClear.6 mph66%29.92 "Hg10 mi
8:50 pm43 °FClear.2 mph61%29.92 "Hg10 mi
8:20 pm45 °FPassing clouds.5 mph61%29.89 "HgN/A
7:50 pm48 °FPassing clouds.7 mph54%29.89 "HgN/A
7:20 pm48 °FPassing clouds.7 mph54%29.89 "HgN/A
6:50 pm48 °FPassing clouds.9 mph50%29.89 "HgN/A
6:20 pm48 °FScattered clouds.7 mph50%29.89 "HgN/A
5:50 pm48 °FPartly sunny.9 mph58%29.89 "HgN/A
5:20 pm48 °FPartly sunny.9 mph54%29.89 "HgN/A
4:50 pm50 °FPartly sunny.12 mph47%29.89 "HgN/A
4:20 pm50 °FPartly sunny.8 mph43%29.86 "HgN/A
3:50 pm48 °FPartly sunny.9 mph54%29.86 "HgN/A
3:20 pm48 °FScattered clouds.8 mph50%29.86 "HgN/A
2:50 pm50 °FScattered clouds.12 mph47%29.86 "HgN/A
2:20 pm52 °FScattered clouds.10 mph47%29.86 "HgN/A
1:50 pm50 °FScattered clouds.8 mph50%29.86 "HgN/A
1:20 pm48 °FScattered clouds.10 mph50%29.86 "HgN/A
12:50 pm48 °FScattered clouds.9 mph54%29.86 "HgN/A
12:20 pm46 °FScattered clouds.8 mph57%29.86 "HgN/A
11:50 am48 °FScattered clouds.7 mph62%29.86 "HgN/A
11:20 am45 °FScattered clouds.9 mph61%29.86 "HgN/A
10:50 am45 °FScattered clouds.8 mph66%29.86 "HgN/A
10:20 am45 °FPassing clouds.7 mph71%29.86 "HgN/A
9:50 am43 °FScattered clouds.8 mph76%29.86 "HgN/A
9:20 am41 °FScattered clouds.8 mph81%29.86 "HgN/A
8:50 am39 °FScattered clouds.8 mph81%29.86 "HgN/A
8:20 am37 °FPartly sunny.6 mph81%29.86 "HgN/A
7:50 am36 °FPartly sunny.3 mph87%29.83 "HgN/A
7:20 am34 °FScattered clouds.2 mph87%29.83 "HgN/A
6:50 am32 °FSunny.2 mph93%29.83 "Hg10 mi
6:20 am34 °FPassing clouds.3 mph87%29.83 "HgN/A
5:50 am32 °FClear.2 mph87%29.83 "Hg10 mi
5:20 am32 °FClear.1 mph93%29.83 "Hg10 mi
4:50 am34 °FClear.3 mph87%29.83 "Hg10 mi
4:20 am36 °FPassing clouds.5 mph81%29.80 "HgN/A
3:50 am36 °FClear.5 mph81%29.80 "Hg10 mi
3:20 am37 °FPassing clouds.5 mph75%29.80 "HgN/A
2:50 am36 °FClear.5 mph81%29.80 "Hg10 mi
2:20 am36 °FPassing clouds.6 mph81%29.80 "HgN/A
1:50 am36 °FClear.6 mph81%29.80 "Hg10 mi
1:20 am37 °FPassing clouds.7 mph75%29.80 "HgN/A
Weather by CustomWeather, © 2017

See weather overviewHow to use our weather pages